Terug naar catalogus

STARLINK-36758

ActiefCommunicatieVLEO
NORAD 67926·PAYLOAD·🇺🇸 United States

Gelanceerd Feb 22, 2026 vanaf Vandenberg Space Force Base

Loading…

Volgende Passages (komende 24 uur)

TLE

VersSource: CelesTrak SupGP

Epoch: Sep 15, 2026, 04:21 UTC

1 67926C 26036Y   26258.18173611 -.00047780  00000+0 -17309-2 0  2585
2 67926  43.0027 255.1172 0001420 271.0814  46.5538 15.27596473    12

Volg STARLINK-36758 in realtime met AllMySat

Download on the App Store